Location: Melara
(45.0500°N, 11.1833°E)
Time: 17:15:24
(UTC+00:00)

BREEZE-M DEB (TANK) - Visible Passes

Search period start: 06 October 2022 00:00
Search period end: 16 October 2022 00:00
Orbit: 332 x 13819 km, 49.6° (Epoch: 05 October)

Date Brightness Start Highest point End Pass type
(mag) Time Alt. Az. Time Alt. Az. Time Alt. Az.
06 Oct 10.5 00:52:58 10° ENE 01:09:16 11° ENE 01:24:21 10° ENE visible
06 Oct 9.3 03:54:22 10° S 05:33:24 66° ESE 06:42:36 10° ENE visible
07 Oct 9.6 01:37:38 10° SE 02:56:23 34° E 03:59:48 10° NE visible
08 Oct 9.3 03:20:28 10° S 04:55:20 62° ESE 06:07:08 10° ENE visible
09 Oct 9.7 01:08:06 10° SE 02:21:41 30° E 03:22:18 10° NE visible
10 Oct 9.3 02:46:53 10° S 04:17:46 57° ESE 05:31:21 10° NE visible
11 Oct 9.7 00:39:56 10° ESE 01:47:21 26° E 02:43:57 10° NE visible
11 Oct 9.3 04:42:24 10° SSW 06:30:56 83° SE 07:35:06 10° ENE visible
12 Oct 9.3 02:13:38 10° SSE 03:40:43 52° ESE 04:55:13 10° NE visible
13 Oct 9.8 00:13:39 10° ESE 01:13:20 21° ENE 02:04:22 10° NE visible
13 Oct 9.2 04:07:05 10° SSW 05:50:09 79° SE 06:59:45 10° ENE visible
14 Oct 9.3 01:40:46 10° SSE 03:04:08 47° E 04:18:40 10° NE visible
14 Oct 9.9 23:50:11 10° E 00:39:40 17° ENE 01:22:54 10° NE visible
15 Oct 9.2 03:32:02 10° SSW 05:09:52 74° ESE 06:24:08 10° ENE visible
